{"data":{"norad_id":59778,"epoch":"2026-09-22T15:42:48.805920Z","epoch_age_seconds":86383,"freshness":"FRESH","line1":"1 59778U 24092F   26265.65473155  .00017177  00000+0  41689-3 0  9993","line2":"2 59778  97.6686  43.4716 0007033 155.2585 204.8999 15.41080588130767","mean_motion":15.41080588,"eccentricity":0.0007033,"inclination_deg":97.6686,"raan_deg":43.4716,"arg_perigee_deg":155.2585,"mean_anomaly_deg":204.8999,"bstar":0.00041689,"rev_number":13076,"period_min":93.440927827715,"perigee_km":438.12164105005,"apogee_km":447.71613826444,"semimajor_km":6821.0558896572,"source":"CELESTRAK","updated_at":"2026-09-23T09:00:19.580441Z"}}